| time (UTC) | temp C | wind direction | speed KPH | gust KPH | rain 1hr cm | rain 24hr cm | rain mn cm | humidity % | barometer mb |
| 20260902234053 | 32 | 0 | 0.0 | 6.4 | 0.00 | 0.00 | 0.00 | 61 | 1014.5 |
| 20260902233550 | 32 | 0 | 0.0 | 6.4 | 0.00 | 0.00 | 0.00 | 60 | 1014.3 |
| 20260902233100 | 32 | 0 | 0.0 | 6.4 | 0.00 | 0.00 | 0.00 | 59 | 1014.4 |
| 20260902232554 | 32 | 0 | 0.0 | 6.4 | 0.00 | 0.00 | 0.00 | 59 | 1014.4 |
| 20260902232050 | 33 | 0 | 0.0 | 6.4 | 0.00 | 0.00 | 0.00 | 59 | 1014.7 |
| 20260902231613 | 33 | 0 | 0.0 | 4.8 | 0.00 | 0.00 | 0.00 | 58 | 1014.6 |
| 20260902231051 | 33 | 0 | 0.0 | 4.8 | 0.00 | 0.00 | 0.00 | 58 | 1014.6 |
| 20260902230551 | 33 | 256 | 0.0 | 4.8 | 0.00 | 0.00 | 0.00 | 57 | 1014.7 |
| 20260902230114 | 33 | 0 | 0.0 | 3.2 | 0.00 | 0.00 | 0.00 | 57 | 1014.5 |
| 20260902225551 | 33 | 0 | 0.0 | 9.7 | 0.00 | 0.00 | 0.00 | 56 | 1014.7 |
| 20260902225051 | 34 | 0 | 1.6 | 9.7 | 0.00 | 0.00 | 0.00 | 55 | 1014.8 |
| 20260902224603 | 34 | 307 | 0.0 | 4.8 | 0.00 | 0.00 | 0.00 | 55 | 1014.8 |
| 20260902224050 | 34 | 295 | 0.0 | 6.4 | 0.00 | 0.00 | 0.00 | 54 | 1014.6 |
| 20260902223550 | 34 | 274 | 1.6 | 6.4 | 0.00 | 0.00 | 0.00 | 55 | 1014.6 |
| 20260902223105 | 34 | 0 | 0.0 | 3.2 | 0.00 | 0.00 | 0.00 | 56 | 1014.8 |
| 20260902222550 | 35 | 0 | 0.0 | 6.4 | 0.00 | 0.00 | 0.00 | 55 | 1014.9 |
| 20260902222049 | 35 | 325 | 0.0 | 6.4 | 0.00 | 0.00 | 0.00 | 55 | 1014.7 |
| 20260902221559 | 35 | 319 | 1.6 | 6.4 | 0.00 | 0.00 | 0.00 | 54 | 1014.8 |
| 20260902221051 | 35 | 249 | 1.6 | 9.7 | 0.00 | 0.00 | 0.00 | 54 | 1014.9 |
| 20260902220555 | 35 | 257 | 1.6 | 9.7 | 0.00 | 0.00 | 0.00 | 55 | 1014.8 |
| 20260902220104 | 35 | 331 | 0.0 | 4.8 | 0.00 | 0.00 | 0.00 | 54 | 1014.7 |
| 20260902215552 | 34 | 277 | 1.6 | 4.8 | 0.00 | 0.00 | 0.00 | 55 | 1014.6 |
| 20260902215050 | 34 | 277 | 0.0 | 4.8 | 0.00 | 0.00 | 0.00 | 55 | 1014.7 |
| 20260902214615 | 34 | 250 | 0.0 | 6.4 | 0.00 | 0.00 | 0.00 | 54 | 1014.7 |
| 20260902214049 | 34 | 322 | 1.6 | 6.4 | 0.00 | 0.00 | 0.00 | 55 | 1014.9 |
| 20260902213551 | 34 | 285 | 1.6 | 4.8 | 0.00 | 0.00 | 0.00 | 55 | 1014.9 |
| 20260902213100 | 34 | 349 | 0.0 | 6.4 | 0.00 | 0.00 | 0.00 | 55 | 1014.8 |
| 20260902212549 | 34 | 5 | 1.6 | 6.4 | 0.00 | 0.00 | 0.00 | 54 | 1014.9 |
| 20260902212052 | 34 | 236 | 0.0 | 4.8 | 0.00 | 0.00 | 0.00 | 55 | 1014.8 |
| 20260902211559 | 34 | 300 | 1.6 | 4.8 | 0.00 | 0.00 | 0.00 | 54 | 1014.9 |
| 20260902211051 | 34 | 265 | 0.0 | 6.4 | 0.00 | 0.00 | 0.00 | 56 | 1014.9 |
| 20260902210553 | 34 | 322 | 0.0 | 6.4 | 0.00 | 0.00 | 0.00 | 55 | 1014.9 |
| 20260902210058 | 34 | 298 | 1.6 | 6.4 | 0.00 | 0.00 | 0.00 | 54 | 1014.9 |
| 20260902205550 | 34 | 0 | 1.6 | 6.4 | 0.00 | 0.00 | 0.00 | 56 | 1015.0 |
| 20260902205054 | 34 | 291 | 1.6 | 6.4 | 0.00 | 0.00 | 0.00 | 53 | 1015.0 |
| 20260902204558 | 34 | 0 | 0.0 | 6.4 | 0.00 | 0.00 | 0.00 | 57 | 1014.9 |
| 20260902204049 | 35 | 0 | 0.0 | 6.4 | 0.00 | 0.00 | 0.00 | 54 | 1015.1 |
| 20260902203547 | 35 | 169 | 0.0 | 4.8 | 0.00 | 0.00 | 0.00 | 54 | 1015.1 |
| 20260902203101 | 35 | 0 | 1.6 | 11.3 | 0.00 | 0.00 | 0.00 | 52 | 1015.0 |
| 20260902202552 | 35 | 207 | 1.6 | 11.3 | 0.00 | 0.00 | 0.00 | 54 | 1015.1 |
| 20260902202049 | 35 | 269 | 1.6 | 4.8 | 0.00 | 0.00 | 0.00 | 53 | 1015.2 |
| 20260902201603 | 35 | 0 | 1.6 | 6.4 | 0.00 | 0.00 | 0.00 | 52 | 1015.0 |
| 20260902201049 | 35 | 9 | 1.6 | 6.4 | 0.00 | 0.00 | 0.00 | 53 | 1015.1 |
| 20260902200551 | 35 | 302 | 1.6 | 6.4 | 0.00 | 0.00 | 0.00 | 52 | 1015.2 |
| 20260902200058 | 35 | 5 | 1.6 | 6.4 | 0.00 | 0.00 | 0.00 | 55 | 1015.2 |
| 20260902195550 | 35 | 297 | 1.6 | 6.4 | 0.00 | 0.00 | 0.00 | 53 | 1015.2 |
| 20260902195051 | 35 | 260 | 0.0 | 8.0 | 0.00 | 0.00 | 0.00 | 54 | 1015.3 |
| 20260902194557 | 35 | 0 | 1.6 | 8.0 | 0.00 | 0.00 | 0.00 | 53 | 1015.5 |
| 20260902194050 | 35 | 270 | 1.6 | 11.3 | 0.00 | 0.00 | 0.00 | 54 | 1015.4 |
| 20260902193550 | 34 | 229 | 0.0 | 11.3 | 0.00 | 0.00 | 0.00 | 53 | 1015.5 |
| 20260902193104 | 34 | 261 | 0.0 | 8.0 | 0.00 | 0.00 | 0.00 | 53 | 1015.6 |
| 20260902192549 | 34 | 316 | 1.6 | 8.0 | 0.00 | 0.00 | 0.00 | 54 | 1015.7 |
| 20260902192053 | 34 | 286 | 1.6 | 8.0 | 0.00 | 0.00 | 0.00 | 54 | 1015.7 |
| 20260902191557 | 34 | 348 | 1.6 | 6.4 | 0.00 | 0.00 | 0.00 | 53 | 1015.9 |
| 20260902191049 | 34 | 292 | 1.6 | 6.4 | 0.00 | 0.00 | 0.00 | 53 | 1015.8 |
| 20260902190549 | 34 | 316 | 0.0 | 6.4 | 0.00 | 0.00 | 0.00 | 56 | 1015.9 |
| 20260902190057 | 34 | 317 | 0.0 | 8.0 | 0.00 | 0.00 | 0.00 | 53 | 1015.9 |
| 20260902185549 | 34 | 310 | 1.6 | 9.7 | 0.00 | 0.00 | 0.00 | 55 | 1015.8 |
| 20260902185055 | 34 | 0 | 1.6 | 9.7 | 0.00 | 0.00 | 0.00 | 54 | 1016.1 |
| 20260902184601 | 34 | 0 | 1.6 | 9.7 | 0.00 | 0.00 | 0.00 | 52 | 1016.0 |
| 20260902184050 | 33 | 205 | 1.6 | 8.0 | 0.00 | 0.00 | 0.00 | 54 | 1016.1 |
| 20260902183550 | 33 | 295 | 3.2 | 9.7 | 0.00 | 0.00 | 0.00 | 54 | 1016.0 |
| 20260902183057 | 33 | 275 | 1.6 | 9.7 | 0.00 | 0.00 | 0.00 | 57 | 1016.1 |
| 20260902182549 | 33 | 207 | 1.6 | 9.7 | 0.00 | 0.00 | 0.00 | 57 | 1016.2 |
| 20260902182050 | 33 | 208 | 1.6 | 9.7 | 0.00 | 0.00 | 0.00 | 58 | 1016.2 |
| 20260902181602 | 33 | 314 | 1.6 | 9.7 | 0.00 | 0.00 | 0.00 | 59 | 1016.2 |
| 20260902181050 | 33 | 267 | 1.6 | 12.9 | 0.00 | 0.00 | 0.00 | 57 | 1016.4 |
| 20260902180549 | 33 | 0 | 1.6 | 12.9 | 0.00 | 0.00 | 0.00 | 60 | 1016.5 |
| 20260902180105 | 33 | 277 | 0.0 | 11.3 | 0.00 | 0.00 | 0.00 | 59 | 1016.4 |
| 20260902175550 | 33 | 290 | 1.6 | 4.8 | 0.00 | 0.00 | 0.00 | 61 | 1016.5 |
| 20260902175049 | 33 | 0 | 1.6 | 6.4 | 0.00 | 0.00 | 0.00 | 59 | 1016.6 |
| 20260902174609 | 33 | 330 | 1.6 | 9.7 | 0.00 | 0.00 | 0.00 | 59 | 1016.6 |
| 20260902174051 | 33 | 291 | 1.6 | 9.7 | 0.00 | 0.00 | 0.00 | 58 | 1016.7 |
| 20260902173551 | 33 | 145 | 3.2 | 9.7 | 0.00 | 0.00 | 0.00 | 59 | 1016.7 |
| 20260902173106 | 33 | 253 | 0.0 | 14.5 | 0.00 | 0.00 | 0.00 | 59 | 1016.8 |
| 20260902172549 | 33 | 0 | 3.2 | 14.5 | 0.00 | 0.00 | 0.00 | 58 | 1017.0 |
| 20260902172051 | 33 | 0 | 1.6 | 11.3 | 0.00 | 0.00 | 0.00 | 57 | 1016.9 |
| 20260902171609 | 33 | 348 | 1.6 | 6.4 | 0.00 | 0.00 | 0.00 | 57 | 1017.0 |
| 20260902171053 | 33 | 0 | 1.6 | 6.4 | 0.00 | 0.00 | 0.00 | 59 | 1016.8 |
| 20260902170550 | 33 | 344 | 0.0 | 8.0 | 0.00 | 0.00 | 0.00 | 60 | 1016.9 |
| 20260902165550 | 32 | 190 | 1.6 | 8.0 | 0.00 | 0.00 | 0.00 | 60 | 1016.9 |
| 20260902165050 | 32 | 0 | 1.6 | 4.8 | 0.00 | 0.00 | 0.00 | 60 | 1017.0 |
| 20260902164602 | 32 | 312 | 1.6 | 6.4 | 0.00 | 0.00 | 0.00 | 60 | 1017.1 |
| 20260902164049 | 32 | 249 | 1.6 | 6.4 | 0.00 | 0.00 | 0.00 | 60 | 1017.0 |
| 20260902163549 | 32 | 0 | 1.6 | 4.8 | 0.00 | 0.00 | 0.00 | 61 | 1017.0 |
| 20260902163101 | 32 | 313 | 0.0 | 4.8 | 0.00 | 0.00 | 0.00 | 61 | 1017.1 |
| 20260902162553 | 32 | 315 | 0.0 | 6.4 | 0.00 | 0.00 | 0.00 | 62 | 1017.1 |
| 20260902162050 | 32 | 0 | 1.6 | 9.7 | 0.00 | 0.00 | 0.00 | 60 | 1017.1 |
| 20260902161614 | 32 | 294 | 1.6 | 9.7 | 0.00 | 0.00 | 0.00 | 62 | 1017.2 |
| 20260902161050 | 32 | 0 | 0.0 | 6.4 | 0.00 | 0.00 | 0.00 | 62 | 1017.2 |
| 20260902160550 | 32 | 234 | 0.0 | 6.4 | 0.00 | 0.00 | 0.00 | 65 | 1017.1 |
| 20260902160059 | 31 | 278 | 0.0 | 6.4 | 0.00 | 0.00 | 0.00 | 63 | 1017.3 |
| 20260902155550 | 31 | 0 | 1.6 | 8.0 | 0.00 | 0.00 | 0.00 | 64 | 1017.3 |
| 20260902155050 | 31 | 0 | 1.6 | 8.0 | 0.00 | 0.00 | 0.00 | 65 | 1017.2 |
| 20260902154556 | 31 | 294 | 0.0 | 6.4 | 0.00 | 0.00 | 0.00 | 66 | 1017.3 |
| 20260902154049 | 31 | 0 | 0.0 | 6.4 | 0.00 | 0.00 | 0.00 | 67 | 1017.4 |
| 20260902153552 | 31 | 316 | 0.0 | 6.4 | 0.00 | 0.00 | 0.00 | 66 | 1017.4 |
| 20260902153057 | 31 | 23 | 0.0 | 4.8 | 0.00 | 0.00 | 0.00 | 67 | 1017.5 |
| 20260902152549 | 31 | 267 | 0.0 | 4.8 | 0.00 | 0.00 | 0.00 | 67 | 1017.4 |
| 20260902152049 | 30 | 0 | 0.0 | 4.8 | 0.00 | 0.00 | 0.00 | 69 | 1017.5 |
| 20260902151603 | 30 | 258 | 0.0 | 9.7 | 0.00 | 0.00 | 0.00 | 69 | 1017.5 |
| 20260902151050 | 30 | 310 | 1.6 | 9.7 | 0.00 | 0.00 | 0.00 | 68 | 1017.5 |
| 20260902150549 | 30 | 0 | 0.0 | 4.8 | 0.00 | 0.00 | 0.00 | 71 | 1017.7 |
| 20260902150103 | 30 | 0 | 0.0 | 8.0 | 0.00 | 0.00 | 0.00 | 69 | 1017.7 |
| 20260902145549 | 30 | 273 | 0.0 | 8.0 | 0.00 | 0.00 | 0.00 | 69 | 1017.5 |
| 20260902145049 | 30 | 295 | 1.6 | 4.8 | 0.00 | 0.00 | 0.00 | 71 | 1017.4 |
| 20260902144618 | 30 | 0 | 0.0 | 4.8 | 0.00 | 0.00 | 0.00 | 71 | 1017.5 |
| 20260902144049 | 29 | 263 | 0.0 | 6.4 | 0.00 | 0.00 | 0.00 | 72 | 1017.5 |
| 20260902143550 | 29 | 282 | 0.0 | 6.4 | 0.00 | 0.00 | 0.00 | 74 | 1017.6 |
| 20260902143115 | 28 | 281 | 0.0 | 6.4 | 0.00 | 0.00 | 0.00 | 73 | 1017.5 |
| 20260902142549 | 28 | 292 | 0.0 | 3.2 | 0.00 | 0.00 | 0.00 | 75 | 1017.6 |
| 20260902142050 | 28 | 0 | 0.0 | 4.8 | 0.00 | 0.00 | 0.00 | 76 | 1017.6 |
| 20260902141602 | 28 | 292 | 0.0 | 4.8 | 0.00 | 0.00 | 0.00 | 76 | 1017.7 |
| 20260902141051 | 28 | 288 | 0.0 | 4.8 | 0.00 | 0.00 | 0.00 | 77 | 1017.7 |
| 20260902140550 | 27 | 0 | 0.0 | 4.8 | 0.00 | 0.00 | 0.00 | 79 | 1017.7 |
| 20260902140058 | 27 | 284 | 0.0 | 4.8 | 0.00 | 0.00 | 0.00 | 80 | 1017.7 |
| 20260902135549 | 27 | 0 | 0.0 | 4.8 | 0.00 | 0.00 | 0.00 | 80 | 1017.6 |
| 20260902135049 | 27 | 0 | 0.0 | 4.8 | 0.00 | 0.00 | 0.00 | 82 | 1017.7 |
| 20260902134602 | 26 | 0 | 0.0 | 3.2 | 0.00 | 0.00 | 0.00 | 83 | 1017.7 |
| 20260902134049 | 26 | 0 | 0.0 | 3.2 | 0.00 | 0.00 | 0.00 | 83 | 1017.7 |
| 20260902133549 | 26 | 0 | 0.0 | 3.2 | 0.00 | 0.00 | 0.00 | 85 | 1017.8 |
| 20260902133104 | 25 | 0 | 0.0 | 3.2 | 0.00 | 0.00 | 0.00 | 86 | 1017.7 |
| 20260902132549 | 25 | 0 | 0.0 | 1.6 | 0.00 | 0.00 | 0.00 | 88 | 1017.7 |
| 20260902132049 | 25 | 0 | 0.0 | 1.6 | 0.00 | 0.00 | 0.00 | 89 | 1017.6 |
| 20260902131602 | 24 | 0 | 0.0 | 1.6 | 0.00 | 0.00 | 0.00 | 90 | 1017.5 |
| 20260902131049 | 24 | 0 | 0.0 | 0.0 | 0.00 | 0.00 | 0.00 | 91 | 1017.5 |
| 20260902130550 | 24 | 0 | 0.0 | 0.0 | 0.00 | 0.00 | 0.00 | 91 | 1017.5 |
| 20260902130057 | 23 | 0 | 0.0 | 0.0 | 0.00 | 0.00 | 0.00 | 92 | 1017.4 |
| 20260902125549 | 23 | 0 | 0.0 | 0.0 | 0.00 | 0.00 | 0.00 | 93 | 1017.5 |
| 20260902125050 | 23 | 0 | 0.0 | 0.0 | 0.00 | 0.00 | 0.00 | 93 | 1017.5 |
| 20260902124603 | 23 | 0 | 0.0 | 0.0 | 0.00 | 0.00 | 0.00 | 93 | 1017.5 |
| 20260902124053 | 23 | 0 | 0.0 | 0.0 | 0.00 | 0.00 | 0.00 | 93 | 1017.4 |
| 20260902123549 | 23 | 0 | 0.0 | 0.0 | 0.00 | 0.00 | 0.00 | 93 | 1017.5 |
| 20260902123100 | 22 | 0 | 0.0 | 1.6 | 0.00 | 0.00 | 0.00 | 93 | 1017.4 |
| 20260902122552 | 22 | 0 | 0.0 | 1.6 | 0.00 | 0.00 | 0.00 | 94 | 1017.5 |
| 20260902122048 | 22 | 0 | 0.0 | 0.0 | 0.00 | 0.00 | 0.00 | 94 | 1017.5 |
| 20260902121611 | 22 | 0 | 0.0 | 0.0 | 0.00 | 0.00 | 0.00 | 94 | 1017.5 |
| 20260902121050 | 22 | 0 | 0.0 | 0.0 | 0.00 | 0.00 | 0.00 | 94 | 1017.3 |
| 20260902120550 | 22 | 0 | 0.0 | 0.0 | 0.00 | 0.00 | 0.00 | 94 | 1017.4 |
| 20260902120110 | 22 | 0 | 0.0 | 0.0 | 0.00 | 0.00 | 0.00 | 94 | 1017.4 |
| 20260902115552 | 22 | 0 | 0.0 | 0.0 | 0.00 | 0.00 | 0.00 | 94 | 1017.4 |
| 20260902115049 | 22 | 0 | 0.0 | 0.0 | 0.00 | 0.00 | 0.00 | 94 | 1017.3 |
| 20260902114617 | 22 | 0 | 0.0 | 0.0 | 0.00 | 0.00 | 0.00 | 94 | 1017.2 |
| 20260902114047 | 22 | 0 | 0.0 | 0.0 | 0.00 | 0.00 | 0.00 | 94 | 1017.1 |
| 20260902113550 | 22 | 0 | 0.0 | 0.0 | 0.00 | 0.00 | 0.00 | 93 | 1017.2 |
| 20260902113104 | 22 | 0 | 0.0 | 0.0 | 0.00 | 0.00 | 0.00 | 93 | 1017.1 |
| 20260902112550 | 22 | 0 | 0.0 | 0.0 | 0.00 | 0.00 | 0.00 | 93 | 1017.0 |
| 20260902112050 | 22 | 0 | 0.0 | 0.0 | 0.00 | 0.00 | 0.00 | 94 | 1016.9 |
| 20260902111606 | 22 | 0 | 0.0 | 0.0 | 0.00 | 0.00 | 0.00 | 94 | 1016.9 |
| 20260902111049 | 22 | 0 | 0.0 | 1.6 | 0.00 | 0.00 | 0.00 | 94 | 1016.8 |
| 20260902110549 | 22 | 0 | 0.0 | 1.6 | 0.00 | 0.00 | 0.00 | 93 | 1016.8 |
| 20260902110107 | 22 | 0 | 0.0 | 0.0 | 0.00 | 0.00 | 0.00 | 93 | 1016.8 |
| 20260902105549 | 22 | 0 | 0.0 | 0.0 | 0.00 | 0.00 | 0.00 | 93 | 1016.9 |
| 20260902105049 | 22 | 0 | 0.0 | 0.0 | 0.00 | 0.00 | 0.00 | 93 | 1017.0 |
| 20260902104604 | 22 | 0 | 0.0 | 0.0 | 0.00 | 0.00 | 0.00 | 93 | 1016.9 |
| 20260902104052 | 22 | 0 | 0.0 | 0.0 | 0.00 | 0.00 | 0.00 | 93 | 1016.9 |
| 20260902103554 | 22 | 0 | 0.0 | 0.0 | 0.00 | 0.00 | 0.00 | 93 | 1017.0 |
| 20260902103120 | 22 | 0 | 0.0 | 0.0 | 0.00 | 0.00 | 0.00 | 93 | 1016.8 |
| 20260902102549 | 22 | 0 | 0.0 | 0.0 | 0.00 | 0.00 | 0.00 | 93 | 1016.7 |
| 20260902102050 | 22 | 0 | 0.0 | 0.0 | 0.00 | 0.00 | 0.00 | 93 | 1016.8 |
| 20260902101600 | 22 | 0 | 0.0 | 0.0 | 0.00 | 0.00 | 0.00 | 93 | 1016.7 |
| 20260902101049 | 22 | 0 | 0.0 | 0.0 | 0.00 | 0.00 | 0.00 | 93 | 1016.8 |
| 20260902100550 | 22 | 0 | 0.0 | 1.6 | 0.00 | 0.00 | 0.00 | 93 | 1016.6 |
| 20260902100101 | 22 | 0 | 0.0 | 1.6 | 0.00 | 0.00 | 0.00 | 93 | 1016.6 |
| 20260902095549 | 22 | 0 | 0.0 | 1.6 | 0.00 | 0.00 | 0.00 | 93 | 1016.6 |
| 20260902095050 | 22 | 0 | 0.0 | 0.0 | 0.00 | 0.00 | 0.00 | 92 | 1016.5 |
| 20260902094600 | 22 | 0 | 0.0 | 0.0 | 0.00 | 0.00 | 0.00 | 92 | 1016.6 |
| 20260902094050 | 22 | 0 | 0.0 | 0.0 | 0.00 | 0.00 | 0.00 | 92 | 1016.6 |
| 20260902093550 | 22 | 0 | 0.0 | 0.0 | 0.00 | 0.00 | 0.00 | 92 | 1016.6 |
| 20260902093109 | 22 | 0 | 0.0 | 0.0 | 0.00 | 0.00 | 0.00 | 92 | 1016.6 |
| 20260902092549 | 22 | 0 | 0.0 | 0.0 | 0.00 | 0.00 | 0.00 | 92 | 1016.7 |
| 20260902092052 | 22 | 0 | 0.0 | 0.0 | 0.00 | 0.00 | 0.00 | 92 | 1016.7 |
| 20260902091601 | 22 | 0 | 0.0 | 0.0 | 0.00 | 0.00 | 0.00 | 92 | 1016.6 |
| 20260902091049 | 22 | 0 | 0.0 | 0.0 | 0.00 | 0.00 | 0.00 | 92 | 1016.7 |
| 20260902090551 | 22 | 0 | 0.0 | 0.0 | 0.00 | 0.00 | 0.00 | 92 | 1016.6 |
| 20260902085549 | 22 | 0 | 0.0 | 0.0 | 0.00 | 0.00 | 0.00 | 92 | 1016.5 |
| 20260902085050 | 22 | 0 | 0.0 | 0.0 | 0.00 | 0.00 | 0.00 | 92 | 1016.4 |
| 20260902084600 | 23 | 0 | 0.0 | 0.0 | 0.00 | 0.00 | 0.00 | 92 | 1016.4 |
| 20260902084053 | 23 | 0 | 0.0 | 0.0 | 0.00 | 0.00 | 0.00 | 92 | 1016.3 |
| 20260902083549 | 23 | 0 | 0.0 | 0.0 | 0.00 | 0.00 | 0.00 | 91 | 1016.2 |
| 20260902083055 | 23 | 0 | 0.0 | 0.0 | 0.00 | 0.00 | 0.00 | 91 | 1016.2 |
| 20260902082549 | 23 | 0 | 0.0 | 0.0 | 0.00 | 0.00 | 0.00 | 91 | 1016.1 |
| 20260902082049 | 23 | 0 | 0.0 | 0.0 | 0.00 | 0.00 | 0.00 | 91 | 1016.1 |
| 20260902081601 | 23 | 0 | 0.0 | 0.0 | 0.00 | 0.00 | 0.00 | 91 | 1016.1 |
| 20260902081049 | 23 | 0 | 0.0 | 0.0 | 0.00 | 0.00 | 0.00 | 91 | 1016.0 |
| 20260902080551 | 23 | 0 | 0.0 | 0.0 | 0.00 | 0.00 | 0.00 | 91 | 1015.9 |
| 20260902080105 | 23 | 0 | 0.0 | 0.0 | 0.00 | 0.00 | 0.00 | 91 | 1015.9 |
| 20260902075551 | 23 | 0 | 0.0 | 0.0 | 0.00 | 0.00 | 0.00 | 91 | 1016.0 |
| 20260902075049 | 23 | 0 | 0.0 | 0.0 | 0.00 | 0.00 | 0.00 | 91 | 1016.0 |
| 20260902074614 | 23 | 0 | 0.0 | 0.0 | 0.00 | 0.00 | 0.00 | 91 | 1016.0 |
| 20260902074050 | 23 | 0 | 0.0 | 0.0 | 0.00 | 0.00 | 0.00 | 90 | 1016.0 |
| 20260902073553 | 23 | 0 | 0.0 | 0.0 | 0.00 | 0.00 | 0.00 | 90 | 1016.0 |
| 20260902073109 | 23 | 0 | 0.0 | 0.0 | 0.00 | 0.00 | 0.00 | 90 | 1015.9 |
| 20260902072549 | 23 | 0 | 0.0 | 0.0 | 0.00 | 0.00 | 0.00 | 90 | 1015.9 |
| 20260902072049 | 23 | 0 | 0.0 | 0.0 | 0.00 | 0.00 | 0.00 | 90 | 1015.9 |
| 20260902071604 | 23 | 0 | 0.0 | 0.0 | 0.00 | 0.00 | 0.00 | 90 | 1015.8 |
| 20260902071049 | 23 | 0 | 0.0 | 0.0 | 0.00 | 0.00 | 0.00 | 90 | 1015.9 |
| 20260902070548 | 23 | 0 | 0.0 | 0.0 | 0.00 | 0.00 | 0.00 | 90 | 1015.8 |
| 20260902070106 | 23 | 0 | 0.0 | 0.0 | 0.00 | 0.00 | 0.00 | 90 | 1015.8 |
| 20260902065549 | 23 | 0 | 0.0 | 0.0 | 0.00 | 0.00 | 0.00 | 90 | 1015.7 |
| 20260902065053 | 23 | 0 | 0.0 | 0.0 | 0.00 | 0.00 | 0.00 | 89 | 1015.8 |
| 20260902064602 | 23 | 0 | 0.0 | 0.0 | 0.00 | 0.00 | 0.00 | 89 | 1015.7 |
| 20260902064052 | 23 | 0 | 0.0 | 0.0 | 0.00 | 0.00 | 0.00 | 89 | 1015.7 |
| 20260902063549 | 23 | 0 | 0.0 | 0.0 | 0.00 | 0.00 | 0.00 | 89 | 1015.8 |
| 20260902063104 | 23 | 0 | 0.0 | 0.0 | 0.00 | 0.00 | 0.00 | 89 | 1015.7 |
| 20260902062549 | 23 | 0 | 0.0 | 0.0 | 0.00 | 0.00 | 0.00 | 89 | 1015.8 |
| 20260902062050 | 23 | 0 | 0.0 | 0.0 | 0.00 | 0.00 | 0.00 | 89 | 1015.7 |
| 20260902061603 | 23 | 0 | 0.0 | 0.0 | 0.00 | 0.00 | 0.00 | 89 | 1015.9 |
| 20260902061050 | 23 | 0 | 0.0 | 0.0 | 0.00 | 0.00 | 0.00 | 88 | 1016.0 |
| 20260902060550 | 24 | 0 | 0.0 | 0.0 | 0.00 | 0.00 | 0.00 | 88 | 1016.0 |
| 20260902060119 | 24 | 0 | 0.0 | 0.0 | 0.00 | 0.00 | 0.00 | 88 | 1016.0 |
| 20260902055549 | 24 | 0 | 0.0 | 0.0 | 0.00 | 0.00 | 0.00 | 88 | 1015.9 |
| 20260902055045 | 24 | 0 | 0.0 | 0.0 | 0.00 | 0.00 | 0.00 | 88 | 1016.0 |
| 20260902054559 | 24 | 0 | 0.0 | 0.0 | 0.00 | 0.00 | 0.00 | 88 | 1015.9 |
| 20260902054049 | 24 | 0 | 0.0 | 0.0 | 0.00 | 0.00 | 0.00 | 88 | 1015.8 |
| 20260902053551 | 24 | 0 | 0.0 | 0.0 | 0.00 | 0.00 | 0.00 | 88 | 1016.0 |
| 20260902053105 | 24 | 0 | 0.0 | 0.0 | 0.00 | 0.00 | 0.00 | 87 | 1015.9 |
| 20260902052549 | 24 | 0 | 0.0 | 0.0 | 0.00 | 0.00 | 0.00 | 87 | 1015.9 |
| 20260902052050 | 24 | 0 | 0.0 | 0.0 | 0.00 | 0.00 | 0.00 | 87 | 1015.9 |
| 20260902051558 | 24 | 0 | 0.0 | 0.0 | 0.00 | 0.00 | 0.00 | 87 | 1015.8 |
| 20260902051049 | 24 | 0 | 0.0 | 0.0 | 0.00 | 0.00 | 0.00 | 87 | 1015.9 |
| 20260902050550 | 24 | 0 | 0.0 | 0.0 | 0.00 | 0.00 | 0.00 | 86 | 1015.9 |
| 20260902050105 | 25 | 0 | 0.0 | 0.0 | 0.00 | 0.00 | 0.00 | 86 | 1016.0 |
| 20260902045545 | 25 | 0 | 0.0 | 0.0 | 0.00 | 0.00 | 0.00 | 86 | 1016.0 |
| 20260902045047 | 25 | 0 | 0.0 | 0.0 | 0.00 | 0.00 | 0.00 | 86 | 1015.9 |
| 20260902044604 | 25 | 0 | 0.0 | 0.0 | 0.00 | 0.00 | 0.00 | 86 | 1016.0 |
| 20260902044046 | 25 | 0 | 0.0 | 0.0 | 0.00 | 0.00 | 0.00 | 86 | 1015.9 |
| 20260902043549 | 25 | 0 | 0.0 | 0.0 | 0.00 | 0.00 | 0.00 | 86 | 1015.9 |
| 20260902043102 | 25 | 0 | 0.0 | 0.0 | 0.00 | 0.00 | 0.00 | 85 | 1015.8 |
| 20260902042553 | 25 | 0 | 0.0 | 0.0 | 0.00 | 0.00 | 0.00 | 85 | 1016.1 |
| 20260902042049 | 25 | 0 | 0.0 | 0.0 | 0.00 | 0.00 | 0.00 | 85 | 1016.0 |
| 20260902041556 | 25 | 0 | 0.0 | 0.0 | 0.00 | 0.00 | 0.00 | 85 | 1016.0 |
| 20260902041048 | 25 | 0 | 0.0 | 0.0 | 0.00 | 0.00 | 0.00 | 84 | 1015.9 |
| 20260902040549 | 25 | 0 | 0.0 | 0.0 | 0.00 | 0.00 | 0.00 | 84 | 1015.8 |
| 20260902040105 | 25 | 0 | 0.0 | 0.0 | 0.00 | 0.00 | 0.00 | 84 | 1015.8 |
| 20260902035545 | 25 | 0 | 0.0 | 0.0 | 0.00 | 0.00 | 0.00 | 84 | 1015.9 |
| 20260902035047 | 25 | 0 | 0.0 | 0.0 | 0.00 | 0.00 | 0.00 | 83 | 1015.9 |
| 20260902034607 | 25 | 0 | 0.0 | 0.0 | 0.00 | 0.00 | 0.00 | 83 | 1016.0 |
| 20260902034045 | 25 | 0 | 0.0 | 0.0 | 0.00 | 0.00 | 0.00 | 83 | 1016.0 |
| 20260902033546 | 25 | 0 | 0.0 | 0.0 | 0.00 | 0.00 | 0.00 | 83 | 1015.9 |
| 20260902033105 | 26 | 0 | 0.0 | 0.0 | 0.00 | 0.00 | 0.00 | 83 | 1015.9 |
| 20260902032547 | 26 | 0 | 0.0 | 0.0 | 0.00 | 0.00 | 0.00 | 83 | 1015.9 |
| 20260902032049 | 26 | 0 | 0.0 | 0.0 | 0.00 | 0.00 | 0.00 | 82 | 1015.9 |
| 20260902031559 | 26 | 0 | 0.0 | 1.6 | 0.00 | 0.00 | 0.00 | 82 | 1016.0 |
| 20260902031051 | 26 | 0 | 0.0 | 1.6 | 0.00 | 0.00 | 0.00 | 83 | 1015.9 |
| 20260902030549 | 26 | 0 | 0.0 | 1.6 | 0.00 | 0.00 | 0.00 | 82 | 1015.9 |
| 20260902030057 | 26 | 0 | 0.0 | 0.0 | 0.00 | 0.00 | 0.00 | 82 | 1015.9 |
| 20260902025546 | 26 | 0 | 0.0 | 0.0 | 0.00 | 0.00 | 0.00 | 82 | 1015.9 |
| 20260902025049 | 26 | 0 | 0.0 | 0.0 | 0.00 | 0.00 | 0.00 | 82 | 1015.9 |
| 20260902024601 | 26 | 0 | 0.0 | 0.0 | 0.00 | 0.00 | 0.00 | 82 | 1015.9 |
| 20260902024045 | 26 | 0 | 0.0 | 1.6 | 0.00 | 0.00 | 0.00 | 82 | 1015.9 |
| 20260902023545 | 26 | 0 | 0.0 | 1.6 | 0.00 | 0.00 | 0.00 | 82 | 1015.8 |
| 20260902023054 | 26 | 0 | 0.0 | 0.0 | 0.00 | 0.00 | 0.00 | 82 | 1015.8 |
| 20260902022545 | 26 | 0 | 0.0 | 0.0 | 0.00 | 0.00 | 0.00 | 82 | 1015.7 |
| 20260902022050 | 26 | 0 | 0.0 | 0.0 | 0.00 | 0.00 | 0.00 | 81 | 1015.8 |
| 20260902021553 | 26 | 0 | 0.0 | 0.0 | 0.00 | 0.00 | 0.00 | 81 | 1015.8 |
| 20260902021049 | 26 | 0 | 0.0 | 0.0 | 0.00 | 0.00 | 0.00 | 81 | 1015.8 |
| 20260902020549 | 26 | 0 | 0.0 | 0.0 | 0.00 | 0.00 | 0.00 | 80 | 1015.8 |
| 20260902015545 | 26 | 0 | 0.0 | 0.0 | 0.00 | 0.00 | 0.00 | 79 | 1015.9 |
| 20260902015049 | 27 | 0 | 0.0 | 0.0 | 0.00 | 0.00 | 0.00 | 79 | 1015.8 |
| 20260902014554 | 27 | 0 | 0.0 | 0.0 | 0.00 | 0.00 | 0.00 | 78 | 1015.7 |
| 20260902014048 | 27 | 0 | 0.0 | 0.0 | 0.00 | 0.00 | 0.00 | 78 | 1015.8 |
| 20260902013549 | 27 | 0 | 0.0 | 0.0 | 0.00 | 0.00 | 0.00 | 77 | 1015.7 |
| 20260902013058 | 27 | 0 | 0.0 | 0.0 | 0.00 | 0.00 | 0.00 | 77 | 1015.8 |
| 20260902012548 | 27 | 0 | 0.0 | 0.0 | 0.00 | 0.00 | 0.00 | 76 | 1015.7 |
| 20260902012048 | 27 | 0 | 0.0 | 0.0 | 0.00 | 0.00 | 0.00 | 75 | 1015.7 |
| 20260902011557 | 27 | 0 | 0.0 | 0.0 | 0.00 | 0.00 | 0.00 | 74 | 1015.5 |
| 20260902011047 | 28 | 0 | 0.0 | 0.0 | 0.00 | 0.00 | 0.00 | 74 | 1015.7 |
| 20260902010545 | 28 | 0 | 0.0 | 0.0 | 0.00 | 0.00 | 0.00 | 73 | 1015.5 |
| 20260902010058 | 28 | 0 | 0.0 | 0.0 | 0.00 | 0.00 | 0.00 | 73 | 1015.5 |
| 20260902005545 | 28 | 0 | 0.0 | 0.0 | 0.00 | 0.00 | 0.00 | 72 | 1015.5 |
| 20260902005047 | 28 | 0 | 0.0 | 0.0 | 0.00 | 0.00 | 0.00 | 71 | 1015.4 |
| 20260902004601 | 28 | 0 | 0.0 | 0.0 | 0.00 | 0.00 | 0.00 | 70 | 1015.4 |
| 20260902004052 | 29 | 0 | 0.0 | 0.0 | 0.00 | 0.00 | 0.00 | 70 | 1015.4 |
| 20260902003549 | 29 | 0 | 0.0 | 0.0 | 0.00 | 0.00 | 0.00 | 69 | 1015.4 |
| 20260902003059 | 30 | 0 | 0.0 | 0.0 | 0.00 | 0.00 | 0.00 | 68 | 1015.4 |
| 20260902002547 | 30 | 0 | 0.0 | 0.0 | 0.00 | 0.00 | 0.00 | 68 | 1015.3 |
| 20260902002048 | 30 | 0 | 0.0 | 0.0 | 0.00 | 0.00 | 0.00 | 67 | 1015.3 |
| 20260902001601 | 30 | 0 | 0.0 | 0.0 | 0.00 | 0.00 | 0.00 | 66 | 1015.4 |
| 20260902001045 | 31 | 0 | 0.0 | 0.0 | 0.00 | 0.00 | 0.00 | 65 | 1015.4 |
| 20260902000549 | 31 | 0 | 0.0 | 0.0 | 0.00 | 0.00 | 0.00 | 64 | 1015.4 |
| 20260902000058 | 31 | 0 | 0.0 | 0.0 | 0.00 | 0.00 | 0.00 | 64 | 1015.4 |
| 20260901235549 | 31 | 0 | 0.0 | 1.6 | 0.00 | 0.00 | 0.00 | 63 | 1015.5 |
| 20260901235045 | 31 | 0 | 0.0 | 1.6 | 0.00 | 0.00 | 0.00 | 61 | 1015.5 |
| 20260901234613 | 32 | 0 | 0.0 | 0.0 | 0.00 | 0.00 | 0.00 | 60 | 1015.5 |